DLH6142 SBEG-SVMI

Flight info

Callsign DLH6142
Flight time 2h 30m
Altitude 36000
Route ARVUM UM402 ANBIX UZ24 POVLA UL304 IROPI/N0464F380 UL304 CBC NETSI1
Aircraft B738/M-SDE2E3FGHIRWXY/LB1

Departure

Time 2026-05-09 01:38
Airport Eduardo Gomes International Airport (SBEG)

Arrival

Time 2026-05-09 04:08
Airport Maiquetía Simón Bolívar International Airport (SVMI)
Time Latitude Longitude Altitude Speed Heading
2026-05-09 00:54 -3.03272 -60.04539 267 ft 0 kts 353°
2026-05-09 00:56 -3.03283 -60.04538 267 ft 2 kts 352°
2026-05-09 00:56 -3.03299 -60.04536 267 ft 2 kts 352°
2026-05-09 00:56 -3.03314 -60.04533 267 ft 2 kts 352°
2026-05-09 00:57 -3.03330 -60.04532 267 ft 2 kts
2026-05-09 00:57 -3.03344 -60.04537 267 ft 2 kts 41°
2026-05-09 00:57 -3.03354 -60.04549 267 ft 2 kts 63°
2026-05-09 00:57 -3.03357 -60.04556 267 ft 0 kts 78°
2026-05-09 01:09 -3.03354 -60.04545 267 ft 5 kts 78°
2026-05-09 01:09 -3.03344 -60.04497 267 ft 9 kts 78°
2026-05-09 01:09 -3.03333 -60.04430 267 ft 10 kts 89°
2026-05-09 01:10 -3.03368 -60.04382 267 ft 9 kts 159°
2026-05-09 01:10 -3.03427 -60.04361 267 ft 9 kts 159°
2026-05-09 01:10 -3.03491 -60.04327 267 ft 12 kts 144°
2026-05-09 01:10 -3.03552 -60.04262 267 ft 13 kts 124°
2026-05-09 01:11 -3.03590 -60.04183 267 ft 13 kts 109°
2026-05-09 01:11 -3.03614 -60.04100 267 ft 12 kts 105°
2026-05-09 01:11 -3.03636 -60.04016 267 ft 13 kts 104°
2026-05-09 01:11 -3.03663 -60.03911 267 ft 18 kts 104°
2026-05-09 01:12 -3.03713 -60.03795 268 ft 17 kts 134°
2026-05-09 01:12 -3.03751 -60.03771 268 ft 0 kts 161°
2026-05-09 01:36 -3.03791 -60.03767 268 ft 9 kts 183°
2026-05-09 01:37 -3.03852 -60.03806 267 ft 13 kts 242°
2026-05-09 01:37 -3.03862 -60.04038 268 ft 72 kts 271°
2026-05-09 01:37 -3.03859 -60.04818 268 ft 149 kts 270°
2026-05-09 01:37 -3.03847 -60.06041 573 ft 191 kts 271°
2026-05-09 01:38 -3.03856 -60.07406 1520 ft 197 kts 269°
2026-05-09 01:38 -3.03864 -60.08309 2218 ft 196 kts 270°
2026-05-09 01:38 -3.03748 -60.09697 2903 ft 210 kts 285°
2026-05-09 01:38 -3.03110 -60.11052 3326 ft 223 kts 311°
2026-05-09 01:39 -3.01852 -60.12005 3693 ft 235 kts 339°
2026-05-09 01:39 -3.00237 -60.12347 4157 ft 243 kts
2026-05-09 01:39 -2.98537 -60.12024 4700 ft 254 kts 21°
2026-05-09 01:39 -2.96868 -60.11413 5503 ft 256 kts 21°
2026-05-09 01:40 -2.95132 -60.10964 6300 ft 259 kts 12°
2026-05-09 01:40 -2.93328 -60.10769 6819 ft 264 kts
2026-05-09 01:40 -2.91482 -60.10773 6867 ft 266 kts 360°
2026-05-09 01:40 -2.89646 -60.10867 6846 ft 263 kts 359°
2026-05-09 01:41 -2.87851 -60.10981 7207 ft 255 kts 359°
2026-05-09 01:41 -2.86056 -60.11090 7831 ft 263 kts 359°
2026-05-09 01:41 -2.84202 -60.11188 8454 ft 270 kts
2026-05-09 01:41 -2.82298 -60.11256 9085 ft 278 kts
2026-05-09 01:42 -2.79695 -60.11337 9920 ft 287 kts
2026-05-09 01:42 -2.78330 -60.11379 10313 ft 292 kts
2026-05-09 01:42 -2.76270 -60.11443 10905 ft 299 kts
2026-05-09 01:42 -2.74172 -60.11509 11501 ft 305 kts 360°
2026-05-09 01:43 -2.72060 -60.11577 12100 ft 310 kts 360°
2026-05-09 01:43 -2.69887 -60.11647 12730 ft 315 kts 360°
2026-05-09 01:43 -2.67680 -60.11719 13350 ft 319 kts 359°
2026-05-09 01:43 -2.65431 -60.11792 13879 ft 327 kts 359°
2026-05-09 01:44 -2.63134 -60.11867 14338 ft 334 kts 359°
2026-05-09 01:44 -2.60782 -60.11944 14805 ft 341 kts 359°
2026-05-09 01:44 -2.58389 -60.12022 15274 ft 348 kts 360°
2026-05-09 01:44 -2.55946 -60.12102 15756 ft 354 kts 360°
2026-05-09 01:45 -2.53463 -60.12183 16242 ft 359 kts 360°
2026-05-09 01:45 -2.50945 -60.12265 16732 ft 364 kts 360°
2026-05-09 01:45 -2.48406 -60.12348 17237 ft 368 kts 360°
2026-05-09 01:45 -2.45826 -60.12432 17743 ft 372 kts 360°
2026-05-09 01:46 -2.43231 -60.12517 18250 ft 375 kts 360°
2026-05-09 01:46 -2.40609 -60.12603 18689 ft 378 kts 360°
2026-05-09 01:46 -2.37969 -60.12689 19136 ft 381 kts 359°
2026-05-09 01:46 -2.35319 -60.12866 19584 ft 384 kts 356°
2026-05-09 01:47 -2.32653 -60.13154 20049 ft 386 kts 355°
2026-05-09 01:47 -2.29981 -60.13475 20506 ft 388 kts 354°
2026-05-09 01:47 -2.27297 -60.13799 20983 ft 389 kts 355°
2026-05-09 01:47 -2.24604 -60.14115 21465 ft 390 kts 355°
2026-05-09 01:48 -2.21899 -60.14423 21957 ft 391 kts 355°
2026-05-09 01:48 -2.19193 -60.14724 22449 ft 392 kts 355°
2026-05-09 01:48 -2.16488 -60.15022 22951 ft 392 kts 355°
2026-05-09 01:48 -2.13776 -60.15320 23468 ft 392 kts 355°
2026-05-09 01:49 -2.11097 -60.15614 23893 ft 392 kts 355°
2026-05-09 01:49 -2.08389 -60.15910 24283 ft 393 kts 355°
2026-05-09 01:49 -2.05659 -60.16209 24607 ft 396 kts 355°
2026-05-09 01:49 -2.02914 -60.16510 24940 ft 399 kts 355°
2026-05-09 01:50 -2.00147 -60.16813 25280 ft 401 kts 355°
2026-05-09 01:50 -1.97368 -60.17116 25624 ft 403 kts 354°
2026-05-09 01:50 -1.94571 -60.17422 25975 ft 405 kts 354°
2026-05-09 01:50 -1.91762 -60.17728 26322 ft 407 kts 354°
2026-05-09 01:51 -1.88943 -60.18036 26638 ft 410 kts 354°
2026-05-09 01:51 -1.86097 -60.18347 26920 ft 413 kts 354°
2026-05-09 01:51 -1.83225 -60.18661 27217 ft 416 kts 354°
2026-05-09 01:51 -1.80341 -60.18975 27509 ft 419 kts 354°
2026-05-09 01:52 -1.77432 -60.19293 27806 ft 421 kts 354°
2026-05-09 01:52 -1.74510 -60.19612 28109 ft 424 kts 354°
2026-05-09 01:52 -1.71567 -60.19934 28409 ft 426 kts 354°
2026-05-09 01:52 -1.68618 -60.20256 28715 ft 428 kts 354°
2026-05-09 01:53 -1.65650 -60.20580 29023 ft 429 kts 353°
2026-05-09 01:53 -1.62678 -60.20905 29335 ft 431 kts 353°
2026-05-09 01:53 -1.59689 -60.21231 29647 ft 432 kts 353°
2026-05-09 01:53 -1.56691 -60.21559 29961 ft 434 kts 353°
2026-05-09 01:54 -1.53690 -60.21887 30241 ft 435 kts 353°
2026-05-09 01:54 -1.50680 -60.22215 30518 ft 436 kts 353°
2026-05-09 01:54 -1.47660 -60.22545 30784 ft 436 kts 353°
2026-05-09 01:54 -1.44640 -60.22875 31059 ft 437 kts 353°
2026-05-09 01:55 -1.41615 -60.23205 31336 ft 437 kts 353°
2026-05-09 01:55 -1.38584 -60.23536 31615 ft 438 kts 353°
2026-05-09 01:55 -1.35558 -60.23866 31901 ft 438 kts 353°
2026-05-09 01:55 -1.32527 -60.24197 32186 ft 438 kts 353°
2026-05-09 01:56 -1.29500 -60.24528 32476 ft 438 kts 353°
2026-05-09 01:56 -1.26463 -60.24859 32765 ft 438 kts 353°
2026-05-09 01:56 -1.23438 -60.25189 33057 ft 438 kts 353°
2026-05-09 01:56 -1.20451 -60.25515 33334 ft 437 kts 352°
2026-05-09 01:57 -1.17426 -60.25846 33654 ft 437 kts 352°
2026-05-09 01:57 -1.14402 -60.26176 33953 ft 436 kts 352°
2026-05-09 01:57 -1.11391 -60.26504 34220 ft 435 kts 352°
2026-05-09 01:57 -1.08383 -60.26833 34486 ft 434 kts 352°
2026-05-09 01:58 -1.05386 -60.27160 34750 ft 433 kts 352°
2026-05-09 01:58 -1.02396 -60.27486 35021 ft 431 kts 352°
2026-05-09 01:58 -0.99419 -60.27811 35291 ft 430 kts 352°
2026-05-09 01:58 -0.96445 -60.28135 35575 ft 428 kts 352°
2026-05-09 01:59 -0.93495 -60.28457 35850 ft 426 kts 352°
2026-05-09 01:59 -0.90547 -60.28779 35928 ft 429 kts 352°
2026-05-09 01:59 -0.84554 -60.29434 35937 ft 437 kts 353°
2026-05-09 02:00 -0.78456 -60.30100 35944 ft 445 kts 353°
2026-05-09 02:00 -0.72251 -60.30778 35952 ft 452 kts 353°
2026-05-09 02:01 -0.65981 -60.31462 35947 ft 459 kts 353°
2026-05-09 02:01 -0.59588 -60.32159 35944 ft 464 kts 353°
2026-05-09 02:02 -0.53151 -60.32861 35942 ft 467 kts 353°
2026-05-09 02:02 -0.46684 -60.33567 35936 ft 468 kts 353°
2026-05-09 02:03 -0.40211 -60.34273 35935 ft 467 kts 353°
2026-05-09 02:03 -0.33761 -60.34977 35935 ft 465 kts 353°
2026-05-09 02:04 -0.27346 -60.35677 35932 ft 463 kts 353°
2026-05-09 02:04 -0.20950 -60.36374 35926 ft 461 kts 353°
2026-05-09 02:05 -0.14592 -60.37068 35936 ft 459 kts 353°
2026-05-09 02:05 -0.08253 -60.37760 35943 ft 458 kts 353°
2026-05-09 02:06 -0.01924 -60.38451 35942 ft 457 kts 353°
2026-05-09 02:07 0.07580 -60.39488 35940 ft 458 kts 353°
2026-05-09 02:07 0.13936 -60.40181 35943 ft 460 kts 353°
2026-05-09 02:08 0.20314 -60.40878 35943 ft 462 kts 353°
2026-05-09 02:08 0.26724 -60.41577 35941 ft 464 kts 353°
2026-05-09 02:09 0.33160 -60.42279 35934 ft 466 kts 353°
2026-05-09 02:09 0.39579 -60.42980 35936 ft 468 kts 352°
2026-05-09 02:10 0.46058 -60.43687 35931 ft 469 kts 352°
2026-05-09 02:10 0.52544 -60.44395 35935 ft 469 kts 352°
2026-05-09 02:11 0.59042 -60.45104 35935 ft 469 kts 352°
2026-05-09 02:11 0.65533 -60.45812 35934 ft 470 kts 352°
2026-05-09 02:12 0.72032 -60.46513 35921 ft 469 kts 352°
2026-05-09 02:12 0.78523 -60.47211 35927 ft 468 kts 352°
2026-05-09 02:13 0.84998 -60.47907 35927 ft 468 kts 352°
2026-05-09 02:13 0.91459 -60.48603 35929 ft 467 kts 352°
2026-05-09 02:14 0.97913 -60.49298 35934 ft 466 kts 352°
2026-05-09 02:14 1.04360 -60.49993 35923 ft 465 kts 352°
2026-05-09 02:15 1.10749 -60.50682 35925 ft 464 kts 351°
2026-05-09 02:15 1.17174 -60.51374 35924 ft 464 kts 351°
2026-05-09 02:16 1.23594 -60.52066 35928 ft 464 kts 351°
2026-05-09 02:16 1.30014 -60.52758 35932 ft 464 kts 351°
2026-05-09 02:17 1.36436 -60.53451 35928 ft 465 kts 351°
2026-05-09 02:17 1.42869 -60.54144 35925 ft 465 kts 351°
2026-05-09 02:18 1.49313 -60.54839 35923 ft 466 kts 351°
2026-05-09 02:18 1.55765 -60.55534 35930 ft 466 kts 351°
2026-05-09 02:19 1.62215 -60.56230 35929 ft 466 kts 351°
2026-05-09 02:19 1.68667 -60.56925 35921 ft 466 kts 351°
2026-05-09 02:20 1.75112 -60.57620 35931 ft 466 kts 351°
2026-05-09 02:20 1.81571 -60.58317 35926 ft 467 kts 351°
2026-05-09 02:21 1.88026 -60.59013 35926 ft 466 kts 351°
2026-05-09 02:21 1.94481 -60.59709 35923 ft 467 kts 351°
2026-05-09 02:22 2.00890 -60.60400 35928 ft 466 kts 351°
2026-05-09 02:22 2.07344 -60.61096 35925 ft 466 kts 351°
2026-05-09 02:23 2.13780 -60.61799 35929 ft 465 kts 348°
2026-05-09 02:23 2.16908 -60.62552 35927 ft 460 kts 336°
2026-05-09 02:23 2.19801 -60.63869 35934 ft 455 kts 327°
2026-05-09 02:23 2.22389 -60.65653 35925 ft 451 kts 316°
2026-05-09 02:24 2.24715 -60.67747 35935 ft 450 kts 314°
2026-05-09 02:24 2.29299 -60.72007 35932 ft 450 kts 314°
2026-05-09 02:25 2.33906 -60.76265 35921 ft 451 kts 315°
2026-05-09 02:25 2.38543 -60.80497 35919 ft 451 kts 315°
2026-05-09 02:26 2.43192 -60.84721 35918 ft 452 kts 315°
2026-05-09 02:26 2.47852 -60.88951 35918 ft 452 kts 315°
2026-05-09 02:27 2.52507 -60.93178 35918 ft 453 kts 315°
2026-05-09 02:27 2.56380 -60.96696 35920 ft 453 kts 315°
2026-05-09 02:28 2.61045 -61.00935 35914 ft 453 kts 315°
2026-05-09 02:28 2.65711 -61.05175 35914 ft 453 kts 315°
2026-05-09 02:29 2.70375 -61.09414 35921 ft 453 kts 315°
2026-05-09 02:29 2.75038 -61.13652 35917 ft 453 kts 315°
2026-05-09 02:30 2.79700 -61.17891 35914 ft 453 kts 315°
2026-05-09 02:30 2.84357 -61.22124 35917 ft 452 kts 315°
2026-05-09 02:31 2.89016 -61.26361 35917 ft 452 kts 315°
2026-05-09 02:31 2.93668 -61.30591 35912 ft 452 kts 315°
2026-05-09 02:32 2.98309 -61.34812 35918 ft 451 kts 314°
2026-05-09 02:32 3.02949 -61.39033 35911 ft 450 kts 314°
2026-05-09 02:33 3.07578 -61.43245 35913 ft 450 kts 314°
2026-05-09 02:33 3.12174 -61.47427 35916 ft 449 kts 314°
2026-05-09 02:34 3.16796 -61.51633 35918 ft 448 kts 314°
2026-05-09 02:34 3.21410 -61.55834 35913 ft 448 kts 314°
2026-05-09 02:35 3.26020 -61.60034 35920 ft 448 kts 314°
2026-05-09 02:35 3.30626 -61.64232 35915 ft 448 kts 314°
2026-05-09 02:36 3.35235 -61.68433 35915 ft 448 kts 314°
2026-05-09 02:36 3.39849 -61.72638 35921 ft 448 kts 314°
2026-05-09 02:37 3.44461 -61.76843 35914 ft 448 kts 314°
2026-05-09 02:37 3.49072 -61.81048 35918 ft 449 kts 314°
2026-05-09 02:38 3.53684 -61.85253 35921 ft 449 kts 314°
2026-05-09 02:38 3.58295 -61.89458 35922 ft 448 kts 314°
2026-05-09 02:39 3.62876 -61.93637 35920 ft 448 kts 314°
2026-05-09 02:39 3.67488 -61.97845 35928 ft 448 kts 314°
2026-05-09 02:40 3.72093 -62.02046 35923 ft 448 kts 314°
2026-05-09 02:40 3.76702 -62.06252 35931 ft 447 kts 314°
2026-05-09 02:41 3.81294 -62.10444 35940 ft 446 kts 314°
2026-05-09 02:41 3.85880 -62.14629 35945 ft 446 kts 314°
2026-05-09 02:42 3.90462 -62.18813 35938 ft 446 kts 314°
2026-05-09 02:42 3.95040 -62.22993 35946 ft 445 kts 314°
2026-05-09 02:43 3.99614 -62.27172 35945 ft 445 kts 314°
2026-05-09 02:43 4.04190 -62.31352 35948 ft 445 kts 314°
2026-05-09 02:44 4.08765 -62.35532 35949 ft 445 kts 314°
2026-05-09 02:44 4.13309 -62.39685 35955 ft 445 kts 314°
2026-05-09 02:45 4.17952 -62.43780 35947 ft 447 kts 320°
2026-05-09 02:45 4.23330 -62.46977 35955 ft 450 kts 328°
2026-05-09 02:46 4.28837 -62.49975 35955 ft 450 kts 328°
2026-05-09 02:46 4.34332 -62.52990 35958 ft 451 kts 327°
2026-05-09 02:47 4.39823 -62.56040 35953 ft 451 kts 327°
2026-05-09 02:47 4.45306 -62.59101 35954 ft 451 kts 327°
2026-05-09 02:48 4.50799 -62.62170 35945 ft 452 kts 327°
2026-05-09 02:48 4.56290 -62.65238 35951 ft 452 kts 327°
2026-05-09 02:49 4.61776 -62.68304 35945 ft 451 kts 327°
2026-05-09 02:49 4.67260 -62.71368 35945 ft 451 kts 327°
2026-05-09 02:50 4.72734 -62.74427 35940 ft 450 kts 327°
2026-05-09 02:50 4.78198 -62.77480 35940 ft 449 kts 327°
2026-05-09 02:51 4.83648 -62.80527 35945 ft 448 kts 327°
2026-05-09 02:51 4.89093 -62.83572 35940 ft 447 kts 327°
2026-05-09 02:52 4.94531 -62.86614 35940 ft 447 kts 327°
2026-05-09 02:52 4.99920 -62.89629 35939 ft 446 kts 327°
2026-05-09 02:53 5.05345 -62.92664 35935 ft 446 kts 327°
2026-05-09 02:53 5.10767 -62.95698 35939 ft 447 kts 327°
2026-05-09 02:54 5.16198 -62.98738 35939 ft 447 kts 327°
2026-05-09 02:54 5.21632 -63.01781 35937 ft 448 kts 327°
2026-05-09 02:55 5.27072 -63.04827 35936 ft 448 kts 327°
2026-05-09 02:55 5.32519 -63.07877 35939 ft 448 kts 327°
2026-05-09 02:56 5.37975 -63.10933 35940 ft 449 kts 327°
2026-05-09 02:56 5.43424 -63.13986 35938 ft 449 kts 327°
2026-05-09 02:57 5.48879 -63.17043 35943 ft 449 kts 327°
2026-05-09 02:57 5.54333 -63.20100 35942 ft 448 kts 327°
2026-05-09 02:58 5.59739 -63.23130 35948 ft 447 kts 327°
2026-05-09 02:58 5.65165 -63.26173 35955 ft 447 kts 327°
2026-05-09 02:59 5.70591 -63.29216 35956 ft 446 kts 327°
2026-05-09 02:59 5.76002 -63.32252 35963 ft 445 kts 327°
2026-05-09 03:00 5.81401 -63.35280 35965 ft 444 kts 327°
2026-05-09 03:00 5.86793 -63.38307 35961 ft 444 kts 327°
2026-05-09 03:01 5.92189 -63.41337 35968 ft 444 kts 327°
2026-05-09 03:01 5.97585 -63.44367 35966 ft 444 kts 327°
2026-05-09 03:02 6.02985 -63.47401 35942 ft 445 kts 327°
2026-05-09 03:02 6.08381 -63.50432 35970 ft 445 kts 327°
2026-05-09 03:03 6.13802 -63.53478 35961 ft 447 kts 327°
2026-05-09 03:03 6.19232 -63.56530 35960 ft 448 kts 327°
2026-05-09 03:04 6.24679 -63.59592 35954 ft 449 kts 327°
2026-05-09 03:04 6.30108 -63.62645 35950 ft 450 kts 327°
2026-05-09 03:05 6.35572 -63.65717 35951 ft 450 kts 327°
2026-05-09 03:05 6.41032 -63.68789 35954 ft 450 kts 327°
2026-05-09 03:06 6.46488 -63.71859 35946 ft 449 kts 327°
2026-05-09 03:06 6.51933 -63.74923 35947 ft 448 kts 327°
2026-05-09 03:07 6.57365 -63.77981 35948 ft 447 kts 327°
2026-05-09 03:07 6.62779 -63.81030 35944 ft 446 kts 327°
2026-05-09 03:08 6.68188 -63.84077 35945 ft 445 kts 327°
2026-05-09 03:08 6.73589 -63.87120 35946 ft 445 kts 327°
2026-05-09 03:09 6.78983 -63.90160 35944 ft 445 kts 326°
2026-05-09 03:09 6.84382 -63.93204 35949 ft 444 kts 327°
2026-05-09 03:10 6.89777 -63.96247 35946 ft 445 kts 327°
2026-05-09 03:10 6.95177 -63.99293 35950 ft 445 kts 327°
2026-05-09 03:11 7.00587 -64.02345 35943 ft 446 kts 327°
2026-05-09 03:11 7.05998 -64.05398 35939 ft 446 kts 327°
2026-05-09 03:12 7.11416 -64.08457 35941 ft 446 kts 327°
2026-05-09 03:12 7.16836 -64.11517 35941 ft 447 kts 327°
2026-05-09 03:13 7.24927 -64.16088 35933 ft 446 kts 327°
2026-05-09 03:13 7.30337 -64.19145 35935 ft 446 kts 327°
2026-05-09 03:14 7.35741 -64.22196 35923 ft 445 kts 327°
2026-05-09 03:14 7.41140 -64.25245 35927 ft 445 kts 327°
2026-05-09 03:15 7.46535 -64.28293 35922 ft 444 kts 327°
2026-05-09 03:15 7.51921 -64.31337 35919 ft 444 kts 327°
2026-05-09 03:16 7.57300 -64.34380 35920 ft 443 kts 327°
2026-05-09 03:16 7.61768 -64.36907 35925 ft 442 kts 327°
2026-05-09 03:17 7.67133 -64.39942 35916 ft 442 kts 327°
2026-05-09 03:17 7.73371 -64.43473 35922 ft 442 kts 327°
2026-05-09 03:18 7.78737 -64.46511 35920 ft 442 kts 327°
2026-05-09 03:18 7.83202 -64.49040 35922 ft 443 kts 327°
2026-05-09 03:19 7.88611 -64.52103 35923 ft 443 kts 327°
2026-05-09 03:19 7.93978 -64.55144 35920 ft 443 kts 327°
2026-05-09 03:20 7.99348 -64.58188 35922 ft 443 kts 327°
2026-05-09 03:20 8.04683 -64.61213 35921 ft 442 kts 327°
2026-05-09 03:21 8.10049 -64.64256 35925 ft 442 kts 327°
2026-05-09 03:21 8.15407 -64.67295 35924 ft 441 kts 327°
2026-05-09 03:22 8.20757 -64.70331 35926 ft 441 kts 327°
2026-05-09 03:22 8.26103 -64.73366 35928 ft 441 kts 327°
2026-05-09 03:23 8.31449 -64.76402 35926 ft 440 kts 327°
2026-05-09 03:23 8.36786 -64.79434 35932 ft 440 kts 327°
2026-05-09 03:24 8.42112 -64.82460 35938 ft 439 kts 327°
2026-05-09 03:24 8.47403 -64.85467 35934 ft 439 kts 327°
2026-05-09 03:25 8.52727 -64.88494 35935 ft 439 kts 327°
2026-05-09 03:25 8.58039 -64.91516 35939 ft 439 kts 327°
2026-05-09 03:26 8.63357 -64.94542 35943 ft 438 kts 327°
2026-05-09 03:26 8.68675 -64.97568 35945 ft 438 kts 327°
2026-05-09 03:27 8.73990 -65.00595 35936 ft 438 kts 327°
2026-05-09 03:27 8.79300 -65.03619 35943 ft 438 kts 327°
2026-05-09 03:28 8.84614 -65.06647 35943 ft 438 kts 327°
2026-05-09 03:28 8.89927 -65.09675 35945 ft 438 kts 327°
2026-05-09 03:29 8.95239 -65.12702 35941 ft 438 kts 327°
2026-05-09 03:29 9.00556 -65.15723 35944 ft 438 kts 327°
2026-05-09 03:30 9.05875 -65.18746 35941 ft 438 kts 328°
2026-05-09 03:30 9.11189 -65.21767 35943 ft 438 kts 328°
2026-05-09 03:31 9.16509 -65.24795 35940 ft 438 kts 328°
2026-05-09 03:31 9.21824 -65.27821 35943 ft 438 kts 328°
2026-05-09 03:32 9.27135 -65.30845 35942 ft 438 kts 328°
2026-05-09 03:32 9.32414 -65.33852 35947 ft 438 kts 328°
2026-05-09 03:33 9.37758 -65.36898 35952 ft 438 kts 328°
2026-05-09 03:33 9.43026 -65.39901 35950 ft 437 kts 328°
2026-05-09 03:34 9.48331 -65.42927 35949 ft 437 kts 328°
2026-05-09 03:34 9.53628 -65.45949 35949 ft 437 kts 328°
2026-05-09 03:35 9.58919 -65.48969 35949 ft 436 kts 328°
2026-05-09 03:35 9.64200 -65.51984 35952 ft 435 kts 328°
2026-05-09 03:36 9.69482 -65.54991 35957 ft 435 kts 329°
2026-05-09 03:36 9.74762 -65.57986 35962 ft 435 kts 329°
2026-05-09 03:37 9.80031 -65.60979 35961 ft 434 kts 329°
2026-05-09 03:37 9.85297 -65.63972 35971 ft 434 kts 329°
2026-05-09 03:38 9.90559 -65.66965 35976 ft 434 kts 329°
2026-05-09 03:38 9.95800 -65.69948 35472 ft 428 kts 329°
2026-05-09 03:39 9.98374 -65.71412 35109 ft 423 kts 329°
2026-05-09 03:39 10.00938 -65.72872 34739 ft 421 kts 329°
2026-05-09 03:39 10.03491 -65.74326 34332 ft 423 kts 329°
2026-05-09 03:39 10.06092 -65.75808 33949 ft 433 kts 329°
2026-05-09 03:40 10.08705 -65.77295 33500 ft 438 kts 329°
2026-05-09 03:40 10.11355 -65.78800 33043 ft 435 kts 330°
2026-05-09 03:40 10.13982 -65.80291 32606 ft 431 kts 330°
2026-05-09 03:40 10.16592 -65.81772 32163 ft 429 kts 330°
2026-05-09 03:41 10.19215 -65.83262 31749 ft 438 kts 331°
2026-05-09 03:41 10.21899 -65.84787 31322 ft 443 kts 331°
2026-05-09 03:41 10.24585 -65.86315 30907 ft 442 kts 331°
2026-05-09 03:41 10.27254 -65.87833 30493 ft 437 kts 332°
2026-05-09 03:42 10.29894 -65.89335 30086 ft 434 kts 332°
2026-05-09 03:42 10.32517 -65.90828 29611 ft 431 kts 332°
2026-05-09 03:42 10.35124 -65.92311 29137 ft 428 kts 332°
2026-05-09 03:42 10.37708 -65.93782 28677 ft 425 kts 332°
2026-05-09 03:43 10.40286 -65.95249 28217 ft 423 kts 333°
2026-05-09 03:43 10.42846 -65.96707 27770 ft 420 kts 333°
2026-05-09 03:43 10.45387 -65.98154 27329 ft 418 kts 333°
2026-05-09 03:43 10.47923 -65.99599 26894 ft 417 kts 333°
2026-05-09 03:44 10.50443 -66.01034 26470 ft 415 kts 333°
2026-05-09 03:44 10.52977 -66.02477 26061 ft 421 kts 333°
2026-05-09 03:44 10.55554 -66.03947 25645 ft 427 kts 332°
2026-05-09 03:44 10.57935 -66.05757 25204 ft 431 kts 316°
2026-05-09 03:45 10.59800 -66.08138 24828 ft 430 kts 309°
2026-05-09 03:45 10.61518 -66.10619 24432 ft 429 kts 308°
2026-05-09 03:45 10.63216 -66.13104 24040 ft 427 kts 308°
2026-05-09 03:45 10.64918 -66.15569 23650 ft 426 kts 309°
2026-05-09 03:46 10.66634 -66.18019 23207 ft 424 kts 309°
2026-05-09 03:46 10.68330 -66.20417 22747 ft 423 kts 309°
2026-05-09 03:46 10.70073 -66.22873 22293 ft 422 kts 309°
2026-05-09 03:46 10.71765 -66.25258 21841 ft 421 kts 309°
2026-05-09 03:47 10.73478 -66.27665 21404 ft 419 kts 309°
2026-05-09 03:47 10.75184 -66.30060 20971 ft 417 kts 309°
2026-05-09 03:47 10.76880 -66.32442 20544 ft 415 kts 308°
2026-05-09 03:47 10.78567 -66.34814 20116 ft 412 kts 308°
2026-05-09 03:48 10.80175 -66.37262 19693 ft 411 kts 298°
2026-05-09 03:48 10.81010 -66.39956 19323 ft 401 kts 280°
2026-05-09 03:48 10.81037 -66.42748 18955 ft 391 kts 263°
2026-05-09 03:48 10.80604 -66.45436 18608 ft 379 kts 260°
2026-05-09 03:49 10.80126 -66.48041 18245 ft 371 kts 259°
2026-05-09 03:49 10.79649 -66.50592 17870 ft 364 kts 259°
2026-05-09 03:49 10.79184 -66.53109 17524 ft 362 kts 260°
2026-05-09 03:49 10.78732 -66.55617 17169 ft 359 kts 260°
2026-05-09 03:50 10.78291 -66.58108 16829 ft 357 kts 260°
2026-05-09 03:50 10.77857 -66.60586 16459 ft 355 kts 260°
2026-05-09 03:50 10.77428 -66.63058 16076 ft 355 kts 261°
2026-05-09 03:50 10.77000 -66.65523 15696 ft 354 kts 261°
2026-05-09 03:51 10.76576 -66.67974 15310 ft 348 kts 261°
2026-05-09 03:51 10.76160 -66.70373 14925 ft 340 kts 261°
2026-05-09 03:51 10.75754 -66.72714 14556 ft 332 kts 261°
2026-05-09 03:51 10.75358 -66.75001 14200 ft 325 kts 261°
2026-05-09 03:52 10.74970 -66.77236 13880 ft 317 kts 261°
2026-05-09 03:52 10.74591 -66.79421 13529 ft 311 kts 261°
2026-05-09 03:52 10.74217 -66.81576 13174 ft 308 kts 261°
2026-05-09 03:52 10.73847 -66.83711 12825 ft 305 kts 261°
2026-05-09 03:53 10.73478 -66.85838 12485 ft 305 kts 261°
2026-05-09 03:53 10.73110 -66.87956 12147 ft 305 kts 260°
2026-05-09 03:53 10.72749 -66.90069 11800 ft 300 kts 262°
2026-05-09 03:53 10.72605 -66.92164 11458 ft 294 kts 270°
2026-05-09 03:54 10.72614 -66.94245 11134 ft 295 kts 271°
2026-05-09 03:54 10.72648 -66.96303 10817 ft 295 kts 271°
2026-05-09 03:54 10.72679 -66.98422 10494 ft 296 kts 271°
2026-05-09 03:54 10.72698 -67.00487 10178 ft 296 kts 270°
2026-05-09 03:55 10.72708 -67.02581 9856 ft 297 kts 270°
2026-05-09 03:55 10.72712 -67.04690 9517 ft 297 kts 270°
2026-05-09 03:55 10.72713 -67.06793 9160 ft 298 kts 270°
2026-05-09 03:55 10.72710 -67.08897 8810 ft 298 kts 270°
2026-05-09 03:56 10.72707 -67.11003 8477 ft 298 kts 270°
2026-05-09 03:56 10.72703 -67.13106 8129 ft 295 kts 270°
2026-05-09 03:56 10.72699 -67.15163 7775 ft 288 kts 270°
2026-05-09 03:56 10.72695 -67.17173 7432 ft 281 kts 270°
2026-05-09 03:57 10.72690 -67.19144 7122 ft 275 kts 270°
2026-05-09 03:57 10.72687 -67.21059 6840 ft 267 kts 270°
2026-05-09 03:57 10.72695 -67.22901 6590 ft 254 kts 270°
2026-05-09 03:57 10.72706 -67.24661 6289 ft 243 kts 270°
2026-05-09 03:58 10.72717 -67.26340 6003 ft 232 kts 270°
2026-05-09 03:58 10.72726 -67.27950 5705 ft 222 kts 270°
2026-05-09 03:58 10.72735 -67.29492 5403 ft 215 kts 270°
2026-05-09 03:58 10.72743 -67.30994 5107 ft 211 kts 271°
2026-05-09 03:59 10.72543 -67.32454 4797 ft 210 kts 242°
2026-05-09 03:59 10.71580 -67.33489 4567 ft 200 kts 203°
2026-05-09 03:59 10.70262 -67.33746 4344 ft 191 kts 168°
2026-05-09 03:59 10.69047 -67.33281 4120 ft 187 kts 140°
2026-05-09 04:00 10.68185 -67.32303 4051 ft 188 kts 123°
2026-05-09 04:00 10.67409 -67.31210 4010 ft 190 kts 124°
2026-05-09 04:00 10.66645 -67.30141 3993 ft 185 kts 123°
2026-05-09 04:00 10.65894 -67.29089 3987 ft 183 kts 123°
2026-05-09 04:01 10.65145 -67.28033 3993 ft 186 kts 123°
2026-05-09 04:01 10.64381 -67.26957 4004 ft 189 kts 123°
2026-05-09 04:01 10.63608 -67.25868 4009 ft 191 kts 123°
2026-05-09 04:01 10.62831 -67.24773 4003 ft 190 kts 124°
2026-05-09 04:02 10.62064 -67.23692 3996 ft 187 kts 123°
2026-05-09 04:02 10.61323 -67.22647 3982 ft 184 kts 123°
2026-05-09 04:02 10.60561 -67.21574 4004 ft 186 kts 123°
2026-05-09 04:02 10.59877 -67.20476 3943 ft 190 kts 108°
2026-05-09 04:03 10.59782 -67.19130 3728 ft 187 kts 87°
2026-05-09 04:03 10.59822 -67.17858 3487 ft 176 kts 88°
2026-05-09 04:03 10.59850 -67.16651 3261 ft 167 kts 89°
2026-05-09 04:03 10.59877 -67.15496 3076 ft 156 kts 88°
2026-05-09 04:04 10.59904 -67.14403 2838 ft 154 kts 88°
2026-05-09 04:04 10.59928 -67.13430 2660 ft 158 kts 88°
2026-05-09 04:04 10.59958 -67.12311 2443 ft 157 kts 89°
2026-05-09 04:04 10.59986 -67.11215 2240 ft 151 kts 89°
2026-05-09 04:05 10.60013 -67.10157 2000 ft 148 kts 89°
2026-05-09 04:05 10.60031 -67.09444 1853 ft 152 kts 89°
2026-05-09 04:05 10.60060 -67.08367 1640 ft 152 kts 89°
2026-05-09 04:05 10.60098 -67.06964 1363 ft 147 kts 88°
2026-05-09 04:06 10.60137 -67.05935 1141 ft 142 kts 88°
2026-05-09 04:06 10.60157 -67.05288 1201 ft 136 kts 88°
2026-05-09 04:06 10.60237 -67.04268 1109 ft 146 kts 85°
2026-05-09 04:06 10.60322 -67.02900 833 ft 148 kts 88°
2026-05-09 04:07 10.60344 -67.02205 688 ft 142 kts 85°
2026-05-09 04:07 10.60376 -67.01194 302 ft 142 kts 88°
2026-05-09 04:07 10.60414 -67.00186 228 ft 145 kts 88°
2026-05-09 04:07 10.60443 -66.99185 180 ft 134 kts 88°
2026-05-09 04:08 10.60461 -66.98698 163 ft 27 kts 91°
2026-05-09 04:08 10.60413 -66.98652 162 ft 6 kts 202°
2026-05-09 04:08 10.60390 -66.98687 163 ft 6 kts 251°
2026-05-09 04:08 10.60383 -66.98704 163 ft 0 kts 245°
2026-05-09 04:10 10.60373 -66.98725 165 ft 7 kts 243°
2026-05-09 04:10 10.60341 -66.98781 167 ft 12 kts 238°
2026-05-09 04:10 10.60295 -66.98871 168 ft 16 kts 254°
2026-05-09 04:10 10.60284 -66.98996 174 ft 20 kts 270°
2026-05-09 04:11 10.60281 -66.99146 184 ft 22 kts 269°
2026-05-09 04:11 10.60274 -66.99296 188 ft 21 kts 266°
2026-05-09 04:11 10.60271 -66.99441 196 ft 20 kts 268°
2026-05-09 04:11 10.60266 -66.99578 201 ft 18 kts 266°
2026-05-09 04:12 10.60230 -66.99661 195 ft 0 kts 204°
2026-05-09 04:12 10.60229 -66.99661 195 ft 2 kts 204°
2026-05-09 04:12 10.60195 -66.99666 197 ft 7 kts 186°
2026-05-09 04:12 10.60149 -66.99691 202 ft 8 kts 233°
2026-05-09 04:13 10.60139 -66.99749 212 ft 9 kts 267°
2026-05-09 04:13 10.60135 -66.99825 208 ft 12 kts 268°
2026-05-09 04:13 10.60113 -66.99899 215 ft 11 kts 225°
2026-05-09 04:13 10.60042 -66.99914 214 ft 10 kts 179°
2026-05-09 04:14 10.59971 -66.99911 215 ft 10 kts 178°
2026-05-09 04:14 10.59904 -66.99926 215 ft 10 kts 191°
2026-05-09 04:14 10.59850 -66.99928 211 ft 4 kts 177°
2026-05-09 04:14 10.59843 -66.99927 210 ft 0 kts 177°